Location: Trebic
(49.2170°N, 15.8830°E)
Time: 19:55:14
(UTC+02:00)

Transit 4A - Pass Details

Date: 26 August 2019
Orbit: 865 x 980 km, 66.8° (Epoch: 15 September)

Event Time Altitude Azimuth Distance (km) Brightness Sun altitude
Rises 01:47:04 0° 324° (NW) 3,655 11.5 -29.3°
Reaches altitude 10° 01:49:48 10° 331° (NNW) 2,691 10.8 -29.1°
Maximum altitude 01:55:47 45° 43° (NE) 1,257 8.9 -28.9°
Enters shadow 02:00:59 13° 113° (ESE) 2,399 10.0 -28.6°
Drops below altitude 10° 02:01:35 10° 116° (ESE) 2,602 - -28.6°
Sets 02:04:10 0° 122° (ESE) 3,523 - -28.5°
